QPF
0.02 0.02 0.02 0.02 0.03 0.04 0.05 0.05 0.06 0.06 0.05 0.03 0.02 0.02 0.02 0.03 0.03 0.02 0.03 0.04 0.05 0.04 0.03 0.02 0.01 0.01 0.01 0.02 0.02 0.03 0.04 0.05 0.04 0.04 0.05 0.08 0.09 0.08
0.01 0.02 0.02 0.02 0.02 0.03 0.03 0.04 0.06 0.07 0.07 0.05 0.05 0.05 0.05 0.05 0.04 0.03 0.02 0.03 0.04 0.04 0.04 0.03 0.02 0.01 0.01 0.01 0.02 0.03 0.03 0.03 0.03 0.03 0.03 0.03 0.05 0.06
0.01 0.01 0.01 0.01 0.02 0.02 0.02 0.03 0.04 0.05 0.05 0.05 0.05 0.06 0.06 0.06 0.05 0.04 0.03 0.03 0.04 0.04 0.04 0.04 0.03 0.02 0.01 0.01 0.01 0.02 0.02 0.02 0.03 0.03 0.02 0.02 0.03 0.03
0.01 0.01 0.01 0.01 0.01 0.02 0.02 0.02 0.03 0.03 0.04 0.05 0.05 0.05 0.05 0.05 0.05 0.05 0.03 0.03 0.04 0.04 0.04 0.04 0.05 0.04 0.03 0.02 0.01 0.01 0.01 0.02 0.03 0.02 0.01 0.01 0.02 0.02
0.02 0.02 0.01 0.01 0.02 0.02 0.02 0.02 0.03 0.03 0.04 0.04 0.03 0.03 0.03 0.04 0.04 0.04 0.04 0.04 0.05 0.05 0.04 0.03 0.03 0.04 0.03 0.03 0.02 0.02 0.02 0.02 0.02 0.02 0.02 0.02 0.02 0.02
0.02 0.02 0.02 0.02 0.02 0.02 0.02 0.03 0.03 0.03 0.04 0.04 0.03 0.04 0.03 0.03 0.04 0.04 0.04 0.05 0.05 0.05 0.05 0.05 0.04 0.03 0.02 0.02 0.02 0.01 0.02 0.02 0.02 0.02 0.02 0.02 0.02 0.02
0.03 0.03 0.02 0.02 0.02 0.03 0.03 0.03 0.03 0.03 0.03 0.03 0.03 0.04 0.04 0.05 0.04 0.03 0.03 0.03 0.03 0.03 0.04 0.04 0.04 0.03 0.02 0.02 0.02 0.02 0.02 0.01 0.01 0.01 0.01 0.02 0.02 0.02
0.04 0.04 0.02 0.01 0.02 0.02 0.03 0.03 0.03 0.03 0.03 0.04 0.03 0.04 0.04 0.04 0.04 0.04 0.04 0.04 0.03 0.03 0.03 0.03 0.03 0.03 0.03 0.02 0.02 0.02 0.02 0.01 0.01 0.02 0.02 0.02 0.02 0.01
0.03 0.02 0.01 0.01 0.02 0.02 0.03 0.03 0.03 0.03 0.03 0.04 0.04 0.03 0.03 0.04 0.05 0.05 0.05 0.04 0.03 0.03 0.03 0.03 0.03 0.03 0.03 0.03 0.02 0.02 0.02 0.02 0.02 0.02 0.02 0.02 0.02 0.01
0.02 0.02 0.02 0.02 0.02 0.02 0.02 0.02 0.03 0.03 0.03 0.03 0.02 0.02 0.03 0.03 0.04 0.04 0.04 0.03 0.03 0.02 0.02 0.01 0.01 0.02 0.02 0.02 0.03 0.03 0.02 0.02 0.02 0.02 0.02 0.02 0.02 0.01
0.01 0.01 0.01 0.01 0.01 0.01 0.01 0.02 0.02 0.03 0.02 0.02 0.03 0.03 0.03 0.03 0.03 0.03 0.03 0.03 0.03 0.02 0.01 0.01 0.01 0.02 0.02 0.03 0.03 0.04 0.03 0.02 0.01 0.01 0.01 0.01 0.01 0.01
0.01 0.01 0.01 0.01 0.01 0.01 0.01 0.02 0.02 0.02 0.02 0.03 0.04 0.04 0.03 0.02 0.03 0.02 0.02 0.02 0.02 0.02 0.02 0.02 0.03 0.04 0.05 0.04 0.04 0.03 0.03 0.03 0.02 0.01 0.01 0.01 0.01 0.02
0.01 0.01 0.01 0.01 0.00 0.00 0.01 0.01 0.02 0.03 0.03 0.03 0.04 0.04 0.04 0.03 0.03 0.02 0.02 0.02 0.03 0.04 0.03 0.04 0.05 0.06 0.06 0.05 0.04 0.02 0.03 0.03 0.02 0.01 0.01 0.01 0.01 0.02
0.01 0.01 0.01 0.01 0.01 0.01 0.01 0.01 0.01 0.02 0.03 0.03 0.04 0.03 0.03 0.03 0.03 0.02 0.02 0.03 0.04 0.04 0.04 0.04 0.04 0.04 0.04 0.04 0.04 0.03 0.02 0.02 0.01 0.01 0.01 0.01 0.02 0.02
0.01 0.01 0.01 0.02 0.01 0.01 0.01 0.01 0.01 0.02 0.02 0.02 0.02 0.02 0.03 0.03 0.03 0.03 0.03 0.03 0.03 0.03 0.03 0.03 0.02 0.02 0.03 0.03 0.04 0.03 0.03 0.03 0.02 0.02 0.02 0.03 0.04 0.03
0.01 0.01 0.01 0.01 0.01 0.01 0.01 0.02 0.02 0.02 0.02 0.02 0.02 0.02 0.02 0.03 0.03 0.04 0.03 0.03 0.03 0.03 0.03 0.03 0.03 0.03 0.03 0.03 0.04 0.04 0.03 0.03 0.03 0.03 0.03 0.06 0.06 0.04
0.01 0.01 0.01 0.02 0.02 0.02 0.02 0.02 0.02 0.03 0.03 0.02 0.03 0.03 0.03 0.04 0.04 0.04 0.04 0.03 0.03 0.02 0.02 0.02 0.02 0.02 0.02 0.03 0.04 0.04 0.04 0.04 0.04 0.04 0.05 0.08 0.08 0.07
0.01 0.02 0.02 0.02 0.02 0.02 0.02 0.03 0.03 0.03 0.03 0.03 0.03 0.03 0.04 0.04 0.04 0.03 0.03 0.03 0.02 0.02 0.02 0.02 0.02 0.02 0.03 0.03 0.02 0.03 0.03 0.04 0.05 0.05 0.06 0.08 0.09 0.08
0.02 0.02 0.03 0.03 0.03 0.03 0.03 0.03 0.03 0.03 0.03 0.03 0.04 0.04 0.04 0.04 0.04 0.03 0.03 0.02 0.02 0.01 0.01 0.02 0.02 0.02 0.03 0.03 0.02 0.02 0.04 0.05 0.05 0.06 0.07 0.07 0.08 0.08
0.01 0.02 0.03 0.03 0.04 0.04 0.04 0.04 0.04 0.05 0.05 0.04 0.05 0.07 0.07 0.06 0.06 0.05 0.04 0.03 0.02 0.02 0.03 0.03 0.02 0.02 0.02 0.03 0.03 0.04 0.04 0.05 0.05 0.05 0.07 0.07 0.07 0.07
0.02 0.02 0.03 0.04 0.05 0.06 0.05 0.04 0.04 0.05 0.04 0.04 0.04 0.04 0.04 0.05 0.05 0.04 0.03 0.03 0.03 0.03 0.03 0.02 0.02 0.02 0.03 0.03 0.04 0.04 0.05 0.05 0.05 0.05 0.05 0.05 0.05 0.05
0.03 0.03 0.03 0.04 0.06 0.07 0.06 0.05 0.04 0.04 0.03 0.03 0.03 0.03 0.03 0.02 0.02 0.03 0.02 0.02 0.03 0.03 0.02 0.02 0.02 0.02 0.03 0.04 0.04 0.04 0.05 0.05 0.05 0.05 0.04 0.03 0.04 0.05
0.05 0.05 0.05 0.06 0.06 0.07 0.07 0.06 0.04 0.03 0.02 0.02 0.01 0.02 0.02 0.01 0.01 0.02 0.02 0.02 0.03 0.02 0.02 0.02 0.02 0.03 0.03 0.03 0.03 0.04 0.04 0.04 0.05 0.04 0.05 0.04 0.03 0.04
MSLP
1019.90 1019.88 1019.87 1019.85 1019.86 1019.89 1019.92 1019.97 1020.01 1020.05 1020.06 1020.06 1020.04 1019.99 1019.92 1019.82 1019.71 1019.58 1019.45 1019.31 1019.15 1019.00 1018.82 1018.64 1018.44 1018.21 1017.97 1017.70 1017.42 1017.13 1016.83 1016.55 1016.28 1016.03 1015.82 1015.63 1015.48 1015.36
1020.39 1020.36 1020.31 1020.27 1020.24 1020.22 1020.23 1020.24 1020.26 1020.27 1020.27 1020.24 1020.19 1020.09 1019.95 1019.78 1019.58 1019.37 1019.14 1018.92 1018.71 1018.51 1018.34 1018.18 1018.03 1017.88 1017.71 1017.53 1017.31 1017.06 1016.78 1016.48 1016.16 1015.85 1015.55 1015.29 1015.06 1014.87
1020.83 1020.81 1020.76 1020.71 1020.66 1020.61 1020.59 1020.57 1020.56 1020.55 1020.52 1020.46 1020.36 1020.21 1020.00 1019.75 1019.46 1019.15 1018.82 1018.51 1018.23 1017.99 1017.80 1017.66 1017.56 1017.48 1017.40 1017.30 1017.16 1016.97 1016.72 1016.42 1016.08 1015.72 1015.36 1015.01 1014.71 1014.46
1021.22 1021.24 1021.21 1021.16 1021.10 1021.04 1020.98 1020.94 1020.89 1020.84 1020.77 1020.68 1020.53 1020.33 1020.07 1019.75 1019.37 1018.97 1018.56 1018.16 1017.81 1017.52 1017.30 1017.16 1017.09 1017.06 1017.04 1017.02 1016.95 1016.83 1016.63 1016.35 1016.01 1015.62 1015.21 1014.81 1014.44 1014.13
1021.59 1021.64 1021.65 1021.61 1021.55 1021.48 1021.39 1021.31 1021.22 1021.13 1021.02 1020.88 1020.70 1020.46 1020.15 1019.77 1019.34 1018.87 1018.39 1017.92 1017.51 1017.16 1016.91 1016.75 1016.68 1016.67 1016.69 1016.72 1016.70 1016.62 1016.46 1016.21 1015.88 1015.48 1015.05 1014.62 1014.22 1013.86
1021.92 1022.02 1022.05 1022.04 1021.98 1021.89 1021.78 1021.65 1021.52 1021.38 1021.23 1021.06 1020.84 1020.57 1020.24 1019.84 1019.38 1018.88 1018.35 1017.84 1017.37 1016.98 1016.68 1016.48 1016.37 1016.35 1016.37 1016.40 1016.40 1016.35 1016.21 1015.98 1015.66 1015.28 1014.85 1014.41 1014.00 1013.64
1022.20 1022.33 1022.40 1022.40 1022.34 1022.24 1022.10 1021.94 1021.76 1021.58 1021.40 1021.19 1020.96 1020.68 1020.34 1019.95 1019.49 1018.98 1018.44 1017.91 1017.41 1016.96 1016.61 1016.35 1016.19 1016.12 1016.09 1016.09 1016.07 1016.01 1015.87 1015.65 1015.34 1014.98 1014.57 1014.15 1013.76 1013.41
1022.39 1022.55 1022.63 1022.65 1022.60 1022.49 1022.33 1022.14 1021.93 1021.72 1021.50 1021.27 1021.03 1020.76 1020.44 1020.07 1019.64 1019.15 1018.63 1018.09 1017.57 1017.10 1016.69 1016.37 1016.13 1015.97 1015.87 1015.80 1015.73 1015.62 1015.46 1015.23 1014.93 1014.58 1014.21 1013.82 1013.46 1013.14
1022.47 1022.64 1022.74 1022.78 1022.74 1022.62 1022.45 1022.25 1022.02 1021.78 1021.54 1021.30 1021.06 1020.80 1020.51 1020.18 1019.78 1019.34 1018.85 1018.33 1017.80 1017.30 1016.85 1016.46 1016.14 1015.90 1015.70 1015.55 1015.40 1015.23 1015.02 1014.77 1014.47 1014.13 1013.78 1013.43 1013.10 1012.83
1022.42 1022.59 1022.71 1022.76 1022.73 1022.63 1022.47 1022.26 1022.02 1021.77 1021.52 1021.28 1021.04 1020.80 1020.54 1020.23 1019.89 1019.48 1019.03 1018.54 1018.02 1017.51 1017.02 1016.58 1016.19 1015.86 1015.58 1015.33 1015.10 1014.86 1014.60 1014.32 1014.00 1013.67 1013.33 1013.01 1012.72 1012.47
1022.25 1022.42 1022.55 1022.61 1022.61 1022.53 1022.38 1022.18 1021.95 1021.70 1021.45 1021.21 1020.97 1020.74 1020.49 1020.22 1019.90 1019.53 1019.12 1018.66 1018.16 1017.65 1017.15 1016.67 1016.23 1015.84 1015.48 1015.16 1014.86 1014.56 1014.25 1013.94 1013.60 1013.26 1012.93 1012.62 1012.34 1012.12
1022.01 1022.17 1022.30 1022.38 1022.40 1022.34 1022.22 1022.04 1021.82 1021.58 1021.33 1021.09 1020.85 1020.61 1020.37 1020.11 1019.81 1019.47 1019.08 1018.65 1018.18 1017.69 1017.19 1016.71 1016.25 1015.82 1015.42 1015.05 1014.70 1014.36 1014.02 1013.67 1013.32 1012.96 1012.62 1012.31 1012.03 1011.80
1021.73 1021.88 1022.01 1022.10 1022.13 1022.10 1022.00 1021.85 1021.65 1021.42 1021.17 1020.92 1020.67 1020.43 1020.17 1019.91 1019.62 1019.30 1018.94 1018.53 1018.10 1017.63 1017.16 1016.69 1016.24 1015.80 1015.39 1015.00 1014.63 1014.27 1013.91 1013.54 1013.17 1012.80 1012.45 1012.12 1011.82 1011.57
1021.46 1021.59 1021.71 1021.80 1021.84 1021.82 1021.74 1021.61 1021.42 1021.20 1020.96 1020.71 1020.45 1020.19 1019.93 1019.66 1019.37 1019.06 1018.71 1018.34 1017.93 1017.51 1017.08 1016.64 1016.22 1015.80 1015.41 1015.03 1014.66 1014.29 1013.92 1013.54 1013.17 1012.79 1012.42 1012.07 1011.75 1011.47
1021.21 1021.32 1021.41 1021.49 1021.52 1021.50 1021.44 1021.32 1021.15 1020.94 1020.71 1020.46 1020.20 1019.93 1019.66 1019.38 1019.09 1018.79 1018.46 1018.12 1017.75 1017.37 1016.98 1016.59 1016.21 1015.83 1015.46 1015.10 1014.74 1014.38 1014.02 1013.64 1013.26 1012.88 1012.51 1012.15 1011.81 1011.50
1020.96 1021.04 1021.10 1021.14 1021.16 1021.14 1021.08 1020.97 1020.82 1020.64 1020.42 1020.18 1019.93 1019.67 1019.40 1019.12 1018.84 1018.55 1018.24 1017.92 1017.60 1017.26 1016.91 1016.57 1016.22 1015.88 1015.54 1015.19 1014.85 1014.50 1014.14 1013.77 1013.40 1013.02 1012.65 1012.29 1011.95 1011.64
1020.68 1020.72 1020.74 1020.75 1020.74 1020.71 1020.65 1020.56 1020.44 1020.28 1020.09 1019.88 1019.65 1019.41 1019.16 1018.90 1018.63 1018.36 1018.08 1017.79 1017.49 1017.19 1016.88 1016.57 1016.25 1015.92 1015.59 1015.26 1014.92 1014.57 1014.21 1013.85 1013.48 1013.12 1012.77 1012.43 1012.11 1011.82
1020.32 1020.31 1020.29 1020.26 1020.23 1020.20 1020.15 1020.08 1020.00 1019.88 1019.74 1019.58 1019.39 1019.18 1018.96 1018.72 1018.48 1018.23 1017.97 1017.71 1017.44 1017.15 1016.86 1016.56 1016.25 1015.92 1015.58 1015.24 1014.88 1014.52 1014.15 1013.79 1013.43 1013.09 1012.77 1012.47 1012.20 1011.95
1019.82 1019.77 1019.72 1019.67 1019.64 1019.61 1019.58 1019.55 1019.51 1019.45 1019.37 1019.26 1019.13 1018.97 1018.79 1018.58 1018.37 1018.14 1017.90 1017.65 1017.39 1017.11 1016.82 1016.51 1016.18 1015.83 1015.46 1015.08 1014.69 1014.29 1013.90 1013.53 1013.18 1012.86 1012.57 1012.32 1012.11 1011.93
1019.18 1019.11 1019.04 1018.98 1018.95 1018.95 1018.97 1018.99 1019.01 1019.02 1019.00 1018.95 1018.88 1018.76 1018.62 1018.45 1018.26 1018.04 1017.81 1017.57 1017.30 1017.01 1016.70 1016.36 1016.00 1015.60 1015.19 1014.75 1014.31 1013.87 1013.45 1013.05 1012.70 1012.39 1012.13 1011.93 1011.78 1011.68
1018.40 1018.32 1018.25 1018.21 1018.22 1018.26 1018.32 1018.41 1018.50 1018.58 1018.63 1018.64 1018.62 1018.55 1018.43 1018.28 1018.10 1017.89 1017.66 1017.40 1017.12 1016.81 1016.47 1016.10 1015.69 1015.24 1014.77 1014.27 1013.77 1013.28 1012.81 1012.38 1012.00 1011.69 1011.45 1011.29 1011.19 1011.15
1017.52 1017.45 1017.41 1017.41 1017.45 1017.55 1017.69 1017.84 1018.00 1018.14 1018.25 1018.32 1018.33 1018.29 1018.19 1018.05 1017.87 1017.65 1017.41 1017.14 1016.83 1016.50 1016.13 1015.72 1015.26 1014.77 1014.24 1013.69 1013.13 1012.57 1012.05 1011.57 1011.17 1010.84 1010.60 1010.44 1010.37 1010.36
1016.59 1016.55 1016.55 1016.60 1016.71 1016.87 1017.07 1017.29 1017.51 1017.71 1017.87 1017.96 1018.00 1017.97 1017.87 1017.73 1017.54 1017.31 1017.05 1016.76 1016.44 1016.08 1015.69 1015.26 1014.77 1014.24 1013.67 1013.07 1012.45 1011.85 1011.27 1010.74 1010.29 1009.92 1009.65 1009.48 1009.39 1009.39
Thickness
5680 5678 5678 5679 5679 5678 5675 5673 5669 5667 5670 5673 5673 5673 5670 5668 5666 5664 5663 5661 5659 5658 5656 5655 5654 5653 5651 5650 5649 5647 5646 5644 5642 5641 5640 5639 5638 5637
5674 5673 5672 5674 5674 5673 5672 5671 5669 5666 5666 5670 5668 5669 5666 5664 5661 5660 5659 5657 5656 5654 5653 5651 5650 5648 5647 5646 5644 5643 5641 5639 5638 5636 5634 5633 5633 5632
5670 5669 5668 5668 5669 5669 5669 5667 5666 5664 5661 5663 5664 5663 5660 5658 5656 5655 5655 5654 5655 5651 5649 5647 5646 5644 5643 5641 5640 5637 5636 5634 5633 5631 5630 5629 5627 5626
5667 5666 5665 5665 5663 5663 5663 5663 5662 5660 5658 5655 5657 5657 5654 5653 5651 5650 5651 5652 5650 5648 5645 5643 5642 5640 5639 5637 5635 5633 5631 5629 5627 5626 5625 5623 5622 5620
5663 5662 5662 5661 5659 5660 5658 5659 5659 5658 5656 5653 5653 5652 5651 5649 5647 5647 5647 5645 5646 5645 5642 5639 5637 5636 5634 5632 5630 5628 5626 5624 5622 5620 5618 5617 5616 5615
5659 5658 5658 5657 5656 5655 5655 5654 5654 5653 5652 5651 5650 5649 5647 5646 5643 5643 5642 5642 5642 5642 5639 5637 5634 5632 5631 5628 5626 5624 5621 5618 5616 5614 5612 5611 5610 5609
5654 5654 5654 5653 5651 5650 5652 5651 5650 5649 5649 5648 5646 5645 5644 5640 5640 5639 5638 5637 5637 5637 5635 5634 5633 5631 5629 5625 5622 5619 5616 5614 5611 5609 5607 5605 5603 5602
5650 5649 5649 5648 5646 5644 5643 5642 5641 5642 5643 5642 5642 5640 5637 5637 5635 5634 5633 5632 5631 5633 5630 5630 5630 5629 5627 5625 5620 5616 5612 5609 5606 5604 5602 5600 5598 5597
5645 5644 5646 5647 5644 5644 5640 5637 5636 5634 5633 5635 5636 5635 5634 5633 5630 5629 5628 5627 5627 5628 5625 5625 5627 5625 5624 5621 5616 5611 5608 5605 5602 5599 5597 5595 5594 5592
5640 5640 5640 5640 5640 5638 5637 5637 5636 5634 5631 5629 5630 5630 5630 5628 5626 5624 5623 5622 5622 5623 5622 5620 5623 5621 5621 5618 5612 5608 5605 5601 5598 5595 5593 5592 5590 5589
5636 5636 5635 5635 5632 5629 5630 5631 5631 5631 5629 5627 5625 5624 5622 5620 5619 5618 5618 5619 5620 5621 5620 5617 5618 5617 5617 5615 5611 5605 5602 5598 5596 5593 5591 5589 5587 5584
5632 5632 5629 5629 5626 5623 5625 5626 5626 5626 5626 5624 5621 5619 5619 5617 5614 5613 5615 5615 5616 5616 5617 5613 5613 5612 5612 5612 5609 5605 5600 5596 5593 5591 5588 5586 5583 5581
5629 5629 5628 5623 5619 5618 5618 5620 5620 5619 5620 5619 5619 5619 5618 5617 5615 5613 5611 5610 5610 5611 5612 5608 5607 5606 5604 5604 5604 5603 5600 5597 5593 5590 5586 5583 5580 5578
5623 5624 5623 5616 5613 5612 5612 5613 5612 5611 5615 5615 5615 5615 5615 5615 5613 5611 5608 5606 5604 5604 5603 5602 5601 5598 5597 5597 5598 5599 5597 5594 5592 5590 5587 5582 5578 5576
5617 5615 5612 5609 5607 5608 5608 5607 5606 5609 5612 5612 5612 5612 5612 5610 5608 5606 5604 5601 5599 5599 5598 5596 5595 5594 5592 5592 5593 5593 5592 5591 5589 5587 5585 5582 5580 5577
5608 5608 5605 5604 5604 5605 5606 5606 5607 5609 5609 5609 5609 5608 5607 5605 5604 5603 5600 5599 5598 5598 5596 5593 5591 5589 5589 5589 5589 5588 5588 5587 5586 5584 5582 5580 5578 5576
5602 5603 5604 5605 5606 5607 5608 5609 5608 5607 5606 5605 5604 5603 5602 5601 5600 5599 5596 5596 5595 5595 5594 5592 5590 5587 5586 5585 5585 5585 5584 5583 5582 5580 5576 5575 5575 5573
5595 5600 5601 5603 5605 5607 5608 5608 5607 5606 5604 5603 5602 5601 5599 5598 5596 5595 5594 5593 5592 5592 5590 5589 5588 5586 5584 5585 5580 5581 5580 5579 5577 5575 5573 5572 5571 5571
5593 5598 5600 5601 5602 5605 5607 5607 5607 5605 5602 5600 5599 5598 5597 5596 5594 5593 5592 5591 5590 5589 5588 5586 5585 5583 5581 5581 5581 5575 5575 5574 5573 5571 5569 5568 5568 5568
5596 5598 5599 5600 5601 5602 5604 5605 5605 5603 5600 5598 5597 5596 5595 5594 5593 5592 5591 5588 5587 5586 5585 5583 5581 5580 5578 5577 5577 5575 5570 5570 5569 5567 5566 5565 5563 5561
5598 5599 5599 5600 5601 5601 5602 5603 5602 5601 5599 5597 5596 5594 5594 5593 5592 5591 5590 5584 5583 5583 5582 5580 5578 5573 5574 5574 5573 5572 5570 5565 5563 5562 5562 5561 5560 5560
5598 5599 5599 5600 5600 5601 5601 5601 5600 5599 5598 5596 5595 5594 5593 5592 5591 5589 5588 5586 5584 5583 5581 5579 5576 5574 5573 5572 5571 5570 5568 5564 5560 5556 5554 5554 5555 5555
5598 5598 5599 5599 5599 5599 5600 5600 5599 5598 5597 5596 5594 5593 5592 5591 5589 5588 5587 5585 5584 5581 5579 5577 5576 5573 5573 5572 5570 5569 5566 5563 5561 5559 5556 5551 5548 5546